Simultaneous Nadir Overpasses (SNOs) Predictions

Prediction of SNOs between GOES-16 and NOAA-19 Satellite Orbit:

Table of predicted SNOs for the next 14.0 days since TLE Epoch: 1/25/2020
Index Date Time (GOES-16) GOES-16 Lat,Lon NOAA-19 Lat,Lon Distance(km) Time Diff (sec)
1 01/25/2020 22:17:21 -0.07, -75.19 0.84, -71.28 446.69 80
2 01/27/2020 10:47:15 0.07, -75.20 0.94, -79.08 442.21 80
3 01/28/2020 10:35:35 0.07, -75.20 0.33, -76.22 116.52 80
4 01/29/2020 10:26:35 0.07, -75.21 -0.34, -73.37 209.38 80
5 01/31/2020 22:45:08 -0.07, -75.22 -0.81, -78.39 361.46 80
6 02/01/2020 22:33:29 -0.08, -75.23 -0.14, -75.54 35.20 80
7 02/02/2020 22:24:29 -0.08, -75.24 0.53, -72.70 291.15 80
8 02/05/2020 10:42:43 0.08, -75.27 0.60, -77.64 269.59 80
9 02/06/2020 10:33:43 0.08, -75.28 -0.02, -74.78 56.97 80
10 02/07/2020 10:22:03 0.09, -75.29 -0.69, -71.93 383.52 80




NCC Satellite Simultaneous Nadir Overpasses (SNOs) Prediction Service
